Location: C.E.K. Mees Observatory
(42.7003°N, 77.4088°W)
Time: 22:27:08
(UTC-05:00)

Envisat - Pass Details

Date: 22 November 2019
Orbit: 764 x 766 km, 98.1° (Epoch: 11 December)

Event Time Altitude Azimuth Distance (km) Brightness Sun altitude
Rises 05:49:41 0° 29° (NNE) 3,238 6.4 -14.6°
Reaches altitude 10° 05:52:46 10° 49° (NE) 2,306 6.0 -14.0°
Maximum altitude 05:56:08 18° 91° (E) 1,823 6.1 -13.4°
Drops below altitude 10° 05:59:30 10° 133° (SE) 2,294 6.5 -12.8°
Sets 06:02:32 0° 152° (SSE) 3,215 6.9 -12.3°
